Theta_e
322 320 319 318 318 318 317 317 317 317 317 321 326 327 327 326 326 321 317 318 320 320 317 318 319 318 319 318 318 318 318 318 318 319 322 324 326 328 331 333 335 335 334
318 318 318 318 317 317 317 317 317 318 319 323 324 324 326 326 326 326 325 323 321 320 320 320 319 319 318 318 319 319 319 319 320 321 320 321 323 326 330 331 331 335 334
317 317 318 317 316 315 315 315 314 316 318 319 320 322 323 323 323 324 325 325 324 323 320 319 319 318 318 317 317 317 317 317 316 317 319 321 321 324 327 329 329 332 334
315 315 315 315 314 313 312 312 312 313 314 314 315 316 317 318 319 320 321 322 323 323 323 321 320 319 318 318 317 317 318 317 316 316 316 318 320 321 325 328 329 331 332
313 313 313 312 312 312 312 310 310 309 309 311 312 312 313 313 314 315 317 318 318 319 320 321 320 319 318 317 317 317 317 316 314 314 315 316 318 321 323 327 328 329 329
312 311 311 311 310 310 310 310 309 309 309 309 309 310 310 310 309 309 309 310 312 313 315 316 317 318 319 317 315 314 313 314 314 313 314 314 315 321 321 321 325 325 327
310 310 309 309 309 308 308 307 307 308 308 309 309 310 310 311 311 311 310 310 310 311 312 312 313 314 315 316 316 315 314 311 310 311 313 313 313 314 319 322 323 324 325
308 308 307 307 306 306 306 306 307 308 308 309 309 310 310 310 310 309 308 308 309 310 310 312 313 314 314 313 314 315 315 315 313 312 313 315 316 315 314 320 322 322 323
306 306 305 304 304 305 305 306 307 307 307 307 307 307 307 307 306 306 304 304 305 306 308 310 311 313 313 313 312 315 315 315 314 314 313 313 312 311 310 317 320 321 320
304 304 304 304 304 305 305 305 304 303 303 303 303 303 303 302 302 304 302 303 304 307 308 310 309 310 312 313 313 313 313 312 312 312 313 312 313 312 310 316 318 319 318
303 303 303 303 303 302 301 300 300 300 299 300 301 302 302 302 304 304 304 303 303 305 306 307 307 308 308 309 309 309 309 309 310 311 311 313 315 315 317 317 317 318 318
302 301 301 300 299 299 299 300 300 300 300 300 299 300 302 302 303 303 302 302 302 303 304 305 305 306 307 308 309 309 309 309 310 311 313 312 313 315 318 318 318 319 321
297 296 299 299 300 300 299 300 299 299 298 298 298 298 301 301 302 303 302 303 304 304 304 305 306 307 307 307 307 306 306 307 308 308 309 311 315 317 317 318 319 319 315
297 297 298 298 298 299 299 300 301 300 299 298 297 297 298 299 301 301 302 304 305 306 306 306 306 306 307 308 307 313 314 315 315 315 314 314 316 316 318 319 316 313 316
295 295 295 296 298 300 301 301 301 301 298 296 297 296 297 298 299 299 302 303 305 305 306 309 310 310 311 310 312 315 315 317 319 318 317 317 318 319 319 314 315 317 316
292 293 295 297 299 300 300 300 300 300 298 297 298 297 297 298 298 299 302 304 306 308 306 308 309 311 311 313 312 315 313 317 319 319 319 319 317 316 315 315 314 313 319
293 295 297 299 300 300 299 299 299 300 298 297 297 297 298 298 298 300 303 304 306 308 306 307 309 310 314 312 312 315 314 314 315 315 317 317 318 318 318 319 319 321 321
295 297 297 298 300 299 299 298 297 298 297 297 298 298 299 299 300 302 304 305 306 308 309 310 311 313 313 314 314 315 318 319 319 319 318 320 320 319 319 320 321 321 323
295 297 298 300 300 299 298 297 297 296 296 298 300 301 301 301 302 304 304 305 306 307 308 310 310 315 316 316 316 317 320 320 320 320 320 320 319 319 320 321 321 322 323
297 298 299 300 299 298 297 297 297 298 299 300 300 301 302 303 303 304 305 307 305 305 308 309 311 316 315 316 317 318 318 320 322 321 320 320 320 320 320 321 321 320 321
298 299 300 299 298 298 298 297 298 299 300 301 301 301 302 304 305 305 306 306 303 306 308 310 312 317 317 320 319 320 320 322 321 321 320 320 320 319 320 321 321 321 321
298 299 300 299 298 297 297 298 298 299 300 301 302 303 302 304 305 306 306 304 302 307 308 310 314 318 319 317 320 321 321 321 321 320 320 319 320 320 320 320 321 321 322
299 300 300 300 298 298 298 299 299 300 301 302 302 303 304 306 306 305 305 302 306 306 309 314 316 319 320 321 321 321 321 320 321 321 321 321 320 321 321 320 320 319 321
299 300 300 299 299 299 299 299 300 300 301 302 303 305 305 307 305 303 304 307 307 309 312 314 316 319 320 321 320 320 320 320 321 321 320 319 318 315 317 318 319 320 320
298 299 300 300 300 299 299 299 300 301 302 302 303 304 306 306 305 305 305 307 310 313 314 315 317 319 320 320 318 318 317 318 318 317 316 316 316 316 316 316 318 318 319
297 297 298 299 299 299 300 300 300 301 301 301 302 303 305 306 306 306 307 309 311 315 317 317 318 319 319 318 318 316 314 313 312 315 316 316 316 316 316 316 318 318 318
Wind_Speed
4 8 12 16 19 21 23 24 26 27 28 26 23 24 25 26 26 28 31 29 27 28 29 28 27 28 25 25 24 24 25 26 31 33 29 28 29 28 27 26 22 21 17
8 13 17 19 20 23 23 24 25 26 28 27 27 28 28 29 29 30 30 31 32 34 33 32 32 31 31 31 28 28 27 28 29 32 32 31 28 28 27 26 24 19 17
5 6 8 11 14 16 18 20 22 23 22 25 25 27 28 30 32 32 33 35 35 38 40 40 40 38 37 36 35 35 32 30 29 30 32 30 29 26 27 24 23 18 17
8 9 11 12 17 19 21 23 25 25 27 28 30 29 28 30 31 32 34 36 39 41 42 43 43 42 41 39 37 36 33 32 30 29 30 31 30 27 24 23 22 19 15
13 14 15 18 21 22 24 27 29 30 32 31 30 31 33 34 35 35 34 36 40 43 44 43 43 44 45 44 41 40 36 34 31 31 29 28 30 26 23 21 20 17 18
17 19 20 22 23 24 26 29 31 32 32 31 33 34 35 36 37 40 42 42 43 44 43 42 43 44 44 46 50 49 45 39 36 34 32 29 31 24 24 26 23 22 21
21 23 24 25 27 28 29 29 30 31 31 32 33 33 34 34 35 38 41 44 40 40 41 43 45 45 44 45 46 46 47 48 44 43 33 32 33 35 28 25 23 22 24
25 27 28 29 30 30 30 31 31 31 31 31 32 31 33 33 33 36 39 39 33 34 35 36 37 40 45 47 41 43 41 38 39 41 39 31 26 28 35 29 22 22 21
29 29 29 29 30 30 31 31 30 31 31 30 29 30 31 32 35 37 33 32 33 32 29 32 33 34 38 43 43 40 38 36 36 39 42 40 44 47 37 29 30 25 23
29 29 29 28 29 30 29 29 28 28 29 29 32 33 30 34 36 31 27 27 26 26 28 28 31 32 31 33 37 37 39 40 39 42 43 46 39 34 33 34 31 32 30
29 29 28 27 28 28 28 27 31 37 38 37 37 37 36 33 31 28 26 29 28 25 25 26 27 30 32 33 35 39 43 44 43 45 41 35 30 27 31 31 31 33 32
28 29 28 27 31 37 37 34 31 30 30 31 32 31 29 25 21 19 19 22 23 25 26 27 27 27 24 30 32 35 37 36 36 37 35 36 36 30 24 24 27 29 27
28 30 36 35 32 28 27 26 26 27 27 29 28 27 27 22 17 19 25 19 20 24 25 24 24 27 29 27 31 35 37 44 49 52 52 47 38 33 28 25 24 20 18
38 34 32 30 28 25 24 25 25 26 28 28 27 27 25 18 16 14 16 13 15 13 18 23 23 21 21 26 27 26 27 28 37 43 48 45 39 31 30 30 30 26 20
30 30 28 27 24 24 22 23 25 26 25 25 27 25 23 23 19 20 16 12 6 12 17 15 16 17 17 19 13 11 13 5 23 34 31 29 34 35 33 31 24 23 19
29 29 27 25 22 21 24 27 26 25 21 20 21 24 27 28 26 20 14 7 8 10 15 15 13 11 12 7 5 6 12 17 30 39 42 40 37 34 29 26 19 19 18
26 25 22 19 18 22 25 26 29 26 21 17 14 14 17 18 16 13 7 5 9 6 9 12 10 9 1 9 11 11 18 24 27 32 32 30 28 27 27 23 19 17 16
20 18 17 17 17 22 24 24 22 22 20 16 11 8 8 6 7 8 7 1 7 4 7 6 8 0 8 14 13 7 14 18 19 23 24 23 22 22 20 19 16 12 10
17 15 14 14 15 21 21 18 17 14 12 11 7 6 3 6 4 8 6 2 6 8 5 9 7 1 8 16 10 12 14 19 20 20 19 18 18 16 15 14 12 10 9
14 11 11 12 14 18 15 13 11 9 11 13 9 6 6 5 4 3 2 4 7 8 3 5 2 4 10 11 13 13 15 17 17 16 16 15 14 12 13 13 11 9 7
14 13 12 12 12 14 12 9 10 12 10 11 7 5 6 3 1 2 4 5 7 6 5 3 3 1 12 11 12 11 11 14 14 14 14 12 10 10 10 10 8 6 4
12 12 12 12 13 12 13 10 8 8 10 13 9 5 2 3 2 3 5 6 7 5 5 7 3 2 8 14 10 12 11 12 12 12 11 9 8 8 7 6 6 5 4
10 10 11 11 11 11 9 10 9 8 10 12 11 11 9 7 4 0 3 3 3 4 15 7 7 6 10 10 12 8 11 10 10 10 8 7 6 5 5 5 5 4 3
11 10 10 10 10 10 8 11 9 10 12 12 11 11 11 11 7 3 1 5 4 9 14 8 6 7 8 7 9 5 9 9 9 9 7 6 4 4 2 2 2 4 5
14 11 10 12 12 12 11 8 7 10 9 10 11 11 14 14 11 9 4 5 11 15 6 8 9 11 9 7 8 10 11 13 12 11 8 6 5 3 1 1 4 5 6
17 16 13 12 13 14 13 11 9 8 9 10 11 10 9 14 11 13 11 12 9 7 8 9 10 11 10 10 11 11 12 12 13 10 5 2 3 5 5 4 5 6 8
Wind_Direction
232 236 238 240 242 248 252 256 256 254 255 257 254 252 252 251 250 252 254 252 252 255 262 258 259 268 268 272 277 280 282 281 282 285 286 288 290 286 278 274 277 276 276
269 261 258 258 262 264 266 265 263 262 260 259 258 257 255 254 255 254 254 253 252 252 254 256 256 261 261 268 271 273 275 278 282 284 284 283 284 285 279 279 275 264 261
327 309 300 287 281 278 275 273 271 270 267 266 263 261 260 259 259 259 259 259 258 257 254 252 252 252 253 257 260 265 271 278 280 281 283 281 281 278 282 278 276 262 260
315 304 298 293 285 283 281 279 277 275 274 273 272 269 265 264 262 261 260 260 260 261 260 255 254 253 251 251 254 259 265 272 277 278 279 278 280 281 278 279 274 270 267
308 302 297 294 291 289 285 283 282 280 278 275 272 270 268 266 266 265 263 263 263 263 262 262 261 256 251 251 252 256 260 262 268 277 277 276 272 274 273 276 274 273 265
302 298 295 293 291 289 287 286 285 282 280 277 274 272 270 268 267 263 260 260 261 261 262 262 261 260 257 255 253 251 254 256 258 265 270 275 278 283 277 270 278 282 276
300 298 295 292 290 289 287 285 282 281 280 277 275 274 272 271 269 266 263 261 264 263 262 262 260 259 259 257 255 254 255 251 250 258 261 266 271 269 273 269 270 270 275
298 295 293 291 288 286 284 283 281 281 279 278 276 274 273 272 270 265 262 264 266 262 262 262 261 259 255 251 253 251 249 248 252 256 261 261 264 262 259 261 264 271 276
296 294 292 289 286 286 284 283 282 280 278 275 275 275 273 270 267 268 270 265 267 271 270 262 260 262 256 254 252 247 246 247 250 251 258 261 267 270 259 255 256 264 275
298 294 292 291 289 288 285 283 282 279 278 276 273 271 270 269 276 276 271 268 272 270 265 265 260 258 253 249 242 244 246 249 255 260 264 272 264 252 244 242 244 252 258
297 296 295 294 291 288 286 282 281 283 285 283 280 280 280 280 280 278 270 268 266 265 265 265 258 254 254 256 256 255 257 264 262 262 263 255 244 244 242 240 237 239 244
298 295 294 292 289 291 291 290 289 288 289 289 288 286 285 286 286 294 289 277 265 261 263 265 265 256 257 257 256 256 259 260 255 250 249 249 246 244 226 225 235 226 241
297 296 298 301 301 302 301 300 299 297 293 292 288 282 285 285 270 276 277 263 269 264 262 264 258 254 256 259 263 265 267 263 258 252 250 250 240 232 232 232 216 195 178
298 302 305 306 308 309 306 308 305 303 300 294 282 279 281 272 272 270 258 278 269 268 270 267 262 254 257 262 272 277 270 269 251 244 239 237 227 223 206 211 174 184 190
305 306 308 312 312 312 310 313 309 305 298 287 278 273 269 268 271 275 253 285 285 271 275 260 254 252 256 273 243 278 323 17 234 226 213 195 184 183 178 163 171 187 178
305 306 311 313 318 321 322 322 319 317 310 294 281 269 267 262 266 271 234 252 292 286 254 257 260 253 267 237 225 122 47 86 112 135 142 146 147 150 162 162 173 180 185
310 314 317 319 324 331 333 326 326 326 319 310 298 283 267 268 267 223 239 244 326 262 252 258 260 231 235 159 151 140 119 110 110 114 122 134 144 154 156 160 168 179 191
321 322 321 320 326 336 334 328 323 318 322 325 320 302 283 258 203 197 186 34 338 294 289 241 220 263 172 171 175 165 130 124 124 126 130 133 138 145 152 158 164 169 174
330 331 329 331 337 343 335 327 330 333 335 337 351 4 291 174 160 169 172 294 304 318 290 234 225 52 154 177 176 149 128 124 123 125 125 129 133 138 145 154 156 156 153
345 349 341 344 351 346 349 353 9 9 23 20 18 35 97 91 148 192 244 266 297 302 301 220 232 82 142 157 139 135 130 123 117 127 133 134 134 138 147 155 157 156 162
356 359 1 358 356 356 358 359 20 16 12 28 35 30 98 45 258 224 241 257 312 270 206 242 204 14 154 144 152 140 140 140 123 127 131 135 136 137 145 153 154 145 144
11 8 9 16 19 19 16 18 7 2 17 22 42 34 67 3 309 275 258 272 304 213 249 198 197 44 133 138 126 143 143 126 125 126 127 130 124 115 119 132 148 170 171
24 23 25 31 31 29 41 23 14 19 30 44 55 55 49 25 20 217 224 270 221 244 194 183 164 125 142 141 148 153 130 130 129 122 120 118 112 128 155 167 173 183 207
34 32 32 33 34 37 44 31 35 35 36 40 32 21 16 32 46 48 218 191 244 161 170 190 177 155 149 136 138 116 131 134 121 116 117 125 136 143 154 172 204 205 213
41 40 41 38 38 44 44 44 37 34 42 49 31 22 21 39 42 48 60 122 110 109 171 193 175 169 162 138 144 169 163 143 138 127 122 114 96 65 25 293 261 246 233
50 49 51 49 44 42 45 52 49 34 35 37 34 40 43 52 51 52 80 75 69 98 141 163 171 163 153 151 172 171 167 161 149 144 122 81 33 11 350 316 284 258 238